KK2Z-13 Weather Reports


Display with metric or nautical units.
time (UTC)temp
F
wind
direction
speed
MPH
gust
MPH
rain 1hr
in
rain 24hr
in
rain mn
in
humidity
%
barometer
mb
20260506044510 73 153 2.0 9.0 0.00 0.00 0.00 89 1005.4
20260506043009 73 182 1.0 6.0 0.00 0.00 0.00 88 1005.4
20260506041509 74 187 0.0 4.0 0.00 0.00 0.00 88 1005.5
20260506040030 74 180 0.0 5.0 0.00 0.00 0.00 88 1005.2
20260506034508 74 184 0.0 3.0 0.00 0.00 0.00 87 1005.4
20260506033007 74 174 0.0 2.0 0.00 0.00 0.00 86 1005.2
20260506031517 74 173 0.0 5.0 0.00 0.00 0.00 86 1004.9
20260506030008 75 205 1.0 7.0 0.00 0.00 0.00 85 1004.7
20260506024516 75 164 0.0 2.0 0.00 0.00 0.00 84 1004.4
20260506023005 75 155 0.0 3.0 0.00 0.00 0.00 83 1004.2
20260506021506 76 165 0.0 2.0 0.00 0.00 0.00 82 1004.1
20260506020005 76 163 0.0 2.0 0.00 0.00 0.00 81 1003.9
20260506014508 77 360 0.0 4.0 0.00 0.00 0.00 80 1003.7
20260506013004 77 360 0.0 5.0 0.00 0.00 0.00 79 1003.4
20260506011504 78 360 0.0 4.0 0.00 0.00 0.00 78 1003.3
20260506010008 79 153 0.0 5.0 0.00 0.00 0.00 76 1003.3
20260506004506 80 146 0.0 5.0 0.00 0.00 0.00 73 1003.1
20260506003004 81 174 0.0 5.0 0.00 0.00 0.00 70 1003.1
20260506001502 82 159 1.0 8.0 0.00 0.00 0.00 69 1003.2
20260506000001 82 187 1.0 9.0 0.00 0.00 0.00 69 1003.2
20260505234501 82 190 3.0 10.0 0.00 0.00 0.00 67 1003.2
20260505233111 82 192 7.0 14.0 0.00 0.00 0.00 67 1003.2
20260505231606 83 193 7.0 14.0 0.00 0.00 0.00 66 1003.2
20260505230059 83 360 5.0 12.0 0.00 0.00 0.00 66 1003.0
20260505224559 83 215 6.0 16.0 0.00 0.00 0.00 65 1002.9
20260505223058 83 185 5.0 17.0 0.00 0.00 0.00 64 1003.0
20260505221558 84 360 3.0 19.0 0.00 0.00 0.00 65 1003.0
20260505220057 84 209 7.0 15.0 0.00 0.00 0.00 64 1002.9
20260505214559 83 360 7.0 14.0 0.00 0.00 0.00 64 1003.1
20260505213052 84 228 3.0 9.0 0.00 0.00 0.00 67 1003.4
20260505211606 83 198 3.0 12.0 0.00 0.00 0.00 67 1003.4
20260505210049 84 178 7.0 18.0 0.00 0.00 0.00 66 1003.6
20260505204548 83 360 2.0 17.0 0.00 0.00 0.00 67 1003.7
20260505203048 83 184 7.0 15.0 0.00 0.00 0.00 65 1003.9
20260505201545 83 360 7.0 17.0 0.00 0.00 0.00 66 1004.0
20260505200047 82 192 8.0 17.0 0.00 0.00 0.00 66 1004.1
20260505194541 82 198 6.0 15.0 0.00 0.00 0.00 67 1004.3
20260505193039 82 201 6.0 20.0 0.00 0.00 0.00 68 1004.2
20260505191540 82 244 7.0 17.0 0.00 0.00 0.00 68 1004.5
20260505190040 81 221 8.0 16.0 0.00 0.00 0.00 69 1004.8
20260505184531 80 209 6.0 16.0 0.00 0.00 0.00 71 1005.0
20260505183032 80 240 10.0 21.0 0.00 0.00 0.00 72 1005.4
20260505181526 79 200 8.0 19.0 0.00 0.00 0.00 75 1005.5
20260505180023 78 243 6.0 20.0 0.00 0.00 0.00 76 1005.8
20260505174520 77 360 10.0 21.0 0.00 0.00 0.00 76 1005.7
20260505173017 76 360 11.0 23.0 0.00 0.00 0.00 78 1005.9
20260505171521 75 360 14.0 26.0 0.00 0.00 0.00 78 1006.1
20260505170017 75 360 11.0 21.0 0.00 0.00 0.00 79 1006.0
20260505164511 74 360 14.0 22.0 0.00 0.00 0.00 80 1006.2
20260505163010 74 360 9.0 21.0 0.00 0.00 0.00 82 1006.2
20260505161509 74 360 14.0 21.0 0.00 0.00 0.00 81 1006.4
20260505153004 73 360 10.0 25.0 0.00 0.00 0.00 83 1006.2
20260505151559 72 360 12.0 27.0 0.00 0.00 0.00 83 1006.1
20260505130105 69 360 12.0 27.0 0.00 0.00 0.00 89 1005.0
20260505124549 69 360 12.0 18.0 0.00 0.00 0.00 89 1004.9
20260505123044 69 360 9.0 18.0 0.00 0.00 0.00 89 1004.7
20260505121539 69 360 11.0 20.0 0.00 0.00 0.00 89 1004.6
20260505120039 69 360 10.0 18.0 0.00 0.00 0.00 89 1004.4
20260505114537 69 360 9.0 17.0 0.00 0.00 0.00 89 1004.1
20260505113036 69 360 6.0 18.0 0.00 0.00 0.00 89 1004.1
20260505111539 69 360 10.0 19.0 0.00 0.00 0.00 89 1004.1
20260505101532 69 360 8.0 19.0 0.00 0.00 0.00 88 1004.4
20260505100032 69 360 9.0 20.0 0.00 0.00 0.00 88 1004.1
20260505094527 69 360 10.0 18.0 0.00 0.00 0.00 88 1004.6
20260505093026 69 360 8.0 17.0 0.00 0.00 0.00 88 1004.6
20260505091525 69 360 7.0 18.0 0.00 0.00 0.00 88 1004.6
20260505090023 69 360 6.0 19.0 0.00 0.00 0.00 88 1004.8
20260505084523 69 360 8.0 17.0 0.00 0.00 0.00 88 1005.0
20260505083019 69 360 7.0 17.0 0.00 0.00 0.00 88 1005.1
20260505081518 69 360 5.0 23.0 0.00 0.00 0.00 88 1005.1
20260505080016 69 360 5.0 18.0 0.00 0.00 0.00 88 1005.4
20260505074512 69 360 7.0 15.0 0.00 0.00 0.00 88 1005.5
20260505073011 69 360 4.0 15.0 0.00 0.00 0.00 89 1005.7
20260505071523 69 360 5.0 14.0 0.00 0.00 0.00 89 1005.8
20260505070006 69 360 3.0 17.0 0.00 0.00 0.00 89 1005.9
20260505064507 69 360 6.0 16.0 0.00 0.00 0.00 89 1005.9
20260505063004 69 360 4.0 14.0 0.00 0.00 0.00 89 1006.2
20260505061602 69 360 3.0 14.0 0.00 0.00 0.00 88 1006.1
20260505060058 69 360 2.0 12.0 0.00 0.00 0.00 88 1006.5